Olathe, KS

6:05 AM CDT on March 24, 2017 (GMT -0500)
Johnson County Executive

Weather History for KOJC - June, 2014

Change the Weather History Date:

Thursday, June 12, 2014

  Actual Average Record
Temperature  
Mean Temperature 68 °F 73 °F  
Max Temperature 75 °F 82 °F 96 °F (1953)
Min Temperature 61 °F 63 °F 49 °F (1985)
Degree Days  
Heating Degree Days 0 0  
Month to date heating degree days 1 6  
Since 1 June heating degree days 1 6  
Since 1 July heating degree days 5693 4932  
Cooling Degree Days 3 8  
Month to date cooling degree days 63 81  
Year to date cooling degree days 216 185  
Since 1 June cooling degree days 63 81  
Growing Degree Days 18 (Base 50)    
Moisture  
Dew Point 60 °F    
Average Humidity 70    
Maximum Humidity 93    
Minimum Humidity 46    
Precipitation  
Precipitation 0.98 in 0.21 in 2.50 in (1977)
Month to date precipitation 6.03 2.53  
Year to date precipitation 13.61 17.27  
Sea Level Pressure  
Sea Level Pressure 29.92 in    
Wind  
Wind Speed 8 mph (NNW)    
Max Wind Speed 18 mph    
Max Gust Speed 24 mph    
Visibility 7 miles    
Events Rain , Thunderstorm    
T = Trace of Precipitation, MM = Missing Value Source: NWS Daily Summary

Daily Weather History Graph

Daily Weather History Graph

Search for Another Location

Airport or City:

Trip Planner

Search our weather history database for the weather conditions in past years. The results will help you decide how hot, cold, wet, or windy it might be!

Date:

Astronomy

Jun. 12, 2014 Rise Set
Actual Time 5:53 AM CDT 8:44 PM CDT
Civil Twilight 5:21 AM CDT 9:16 PM CDT
Nautical Twilight 4:41 AM CDT 9:56 PM CDT
Astronomical Twilight 3:55 AM CDT 10:42 PM CDT
Moon 8:18 PM CDT (6/12) 5:34 AM CDT (6/12)
Length of Visible Light 15h 55m
Length of Day
14h 51m
Full, 100% of the Moon is Illuminated
Jun 12
Full
Jun 12
Full
Jun 19
Last Quarter
Jun 27
New
Jul 5
First Quarter

Hourly Weather History & Observations

Time (CDT) Temp. Dew Point Humidity Pressure Visibility Wind Dir Wind Speed Gust Speed Precip Events Conditions
12:53 AM 66.0 °F 62.1 °F 87% 29.81 in 10.0 mi SSE 3.5 mph - N/A   Clear
1:53 AM 66.0 °F 62.1 °F 87% 29.81 in 10.0 mi SSE 5.8 mph - N/A   Partly Cloudy
2:53 AM 64.9 °F 62.1 °F 90% 29.78 in 10.0 mi SE 5.8 mph - N/A   Partly Cloudy
3:53 AM 66.0 °F 61.0 °F 84% 29.80 in 10.0 mi SSE 8.1 mph - N/A   Mostly Cloudy
4:07 AM 66.0 °F 62.1 °F 87% 29.88 in 9.0 mi NW 11.5 mph 18.4 mph 0.01 in Rain , Thunderstorm Light Rain
4:20 AM 66.0 °F 63.0 °F 90% 29.89 in 1.8 mi NNW 8.1 mph - 0.18 in Rain , Thunderstorm Heavy Thunderstorms and Rain
4:31 AM 64.9 °F 64.0 °F 97% 29.89 in 1.5 mi NW 9.2 mph - 0.34 in Rain , Thunderstorm Heavy Thunderstorms and Rain
4:37 AM 64.9 °F 64.0 °F 97% 29.90 in 1.2 mi WNW 10.4 mph - 0.43 in Rain , Thunderstorm Heavy Rain
4:39 AM 64.9 °F 64.0 °F 97% 29.90 in 1.2 mi WNW 8.1 mph - 0.45 in Rain , Thunderstorm Heavy Thunderstorms and Rain
4:44 AM 64.9 °F 64.0 °F 97% 29.90 in 1.8 mi WNW 6.9 mph - 0.48 in Rain , Thunderstorm Heavy Thunderstorms and Rain
4:49 AM 64.4 °F 64.4 °F 100% 29.90 in 3.0 mi NNW 4.6 mph - 0.49 in Rain , Thunderstorm Thunderstorms and Rain
4:53 AM 66.0 °F 64.0 °F 93% 29.86 in 4.0 mi North 6.9 mph - 0.50 in Rain , Thunderstorm Thunderstorms and Rain
5:34 AM 64.9 °F 64.0 °F 97% 29.92 in 2.0 mi West 3.5 mph - 0.16 in Rain , Thunderstorm Thunderstorms and Rain
5:40 AM 64.9 °F 64.0 °F 97% 29.92 in 2.0 mi West 4.6 mph - 0.19 in Rain Heavy Rain
5:48 AM 64.4 °F 62.6 °F 94% 29.93 in 2.5 mi NW 6.9 mph - 0.21 in Rain , Thunderstorm Rain
5:53 AM 64.9 °F 63.0 °F 93% 29.90 in 3.0 mi West 4.6 mph - 0.23 in Rain , Thunderstorm Rain
6:07 AM 64.9 °F 64.0 °F 97% 29.92 in 3.0 mi NNW 8.1 mph - 0.05 in Rain Rain
6:53 AM 66.0 °F 63.0 °F 90% 29.88 in 6.0 mi North 11.5 mph 24.2 mph 0.19 in Rain , Thunderstorm Light Rain
7:09 AM 64.9 °F 63.0 °F 93% 29.91 in 8.0 mi North 10.4 mph - 0.01 in Rain Light Rain
7:53 AM 64.9 °F 62.1 °F 90% 29.87 in 10.0 mi North 12.7 mph - 0.02 in   Mostly Cloudy
9:53 AM 64.9 °F 61.0 °F 87% 29.92 in 10.0 mi NNE 6.9 mph - 0.03 in   Overcast
10:53 AM 64.9 °F 59.0 °F 81% 29.92 in 10.0 mi North 8.1 mph - 0.00 in   Overcast
11:53 AM 66.0 °F 57.9 °F 75% 29.94 in 10.0 mi NNW 9.2 mph - N/A   Overcast
12:53 PM 69.1 °F 57.0 °F 65% 29.95 in 10.0 mi North 11.5 mph - N/A   Partly Cloudy
1:45 PM 70.0 °F 57.9 °F 65% 29.98 in 10.0 mi NNW 9.2 mph - N/A   Mostly Cloudy
1:53 PM 71.1 °F 57.0 °F 61% 29.95 in 10.0 mi NNW 8.1 mph - N/A   Mostly Cloudy
2:53 PM 72.0 °F 57.0 °F 59% 29.96 in 10.0 mi NNW 11.5 mph 17.3 mph N/A   Mostly Cloudy
3:00 PM 72.0 °F 55.9 °F 57% 29.98 in 10.0 mi NNW 10.4 mph - N/A   Mostly Cloudy
3:53 PM 73.0 °F 55.9 °F 55% 29.96 in 10.0 mi North 10.4 mph - N/A   Scattered Clouds
4:53 PM 73.9 °F 55.9 °F 53% 29.95 in 10.0 mi North 9.2 mph - N/A   Mostly Cloudy
5:53 PM 73.9 °F 55.0 °F 52% 29.95 in 10.0 mi NW 13.8 mph - N/A   Mostly Cloudy
6:53 PM 73.9 °F 52.0 °F 46% 29.95 in 10.0 mi NNW 12.7 mph - N/A   Partly Cloudy
7:53 PM 72.0 °F 52.0 °F 49% 29.96 in 10.0 mi NNW 6.9 mph - N/A   Clear
8:53 PM 69.1 °F 52.0 °F 54% 29.97 in 10.0 mi NNW 6.9 mph - N/A   Clear
9:53 PM 66.0 °F 52.0 °F 60% 29.99 in 10.0 mi NNW 5.8 mph - N/A   Clear
10:53 PM 64.0 °F 52.0 °F 65% 30.00 in 10.0 mi NNW 4.6 mph - N/A   Clear
11:53 PM 64.0 °F 50.0 °F 60% 30.01 in 10.0 mi North 4.6 mph - N/A   Clear